STARLINK-2113, 47392

Orbit data source: Space-Track

STARLINK-2113, 47392 is a payload satellite owned by SpaceX/Seattle (US) in LEO that was launched on Wed, 20 Jan 2021 UTC via an FALCON 9 launch vehicle from the Air Force Eastern Test Range (AFETR). Payload-class satellites include a variety of spacecraft equipped with specific instruments for various scientific and technological missions. These include communications satellites like Starlink; space stations such as the ISS; scientific satellites like the Hubble; Earth observation satellites from companies like Planet Labs, Umbra, and HawkEye 360; GPS; miniature CubeSats for education and research; and military/defense satellites.

Not visible in the next 10 days
Identifier
47392, 2021-005AV
Orbit
LEO
Country
Flag of USUS
Related business
Manufacturer
SpaceX/Seattle
Mission
Partially operational Commercial Communications
Bus & Motor
STARLINK, Unknown motor
Mass
260 kg wet, ~248 kg dry
Launch date (UTC)
2021-01-20 (5 years ago)
Launch vehicle
FALCON 9
Launch site
Air Force Eastern Test Range (AFETR)
Object type
Payload
Rocket body
Debris
Shape & HBR
Box + 1 Pan, 10.1 m
Radar Cross Section
13.562 m², Large (>1 m²)

Expand to show TLE details & history
Last TLE update: 2 days ago

TLE from 2 days ago
0 STARLINK-2113
1 47392U 21005AV  26171.50003471  .00209230  00000-0  75273-3 0  9993
2 47392  53.0407 227.3520 0004549  18.1216 337.8098 15.87611590  5992
Epoch: 2026-06-20T12:00Z
TLE epoch observation values (Epoch: 2026-06-20T12:00:02.998Z)
Latitude
-3.36849°
Longitude
136.10175°
Altitude
307.572 km
Speed
7.726 km/s
True Right ascension
14h 59m 18s
True Declination
-3° 20' 49"
Sunlit
Object was in full shadow at epoch
Visualization orbit readout
Latitude
Unknown
Longitude
Unknown
Altitude
Unknown
Speed
Unknown
Apparent Right ascension
Unknown
Apparent Declination
Unknown
Sunlit
N/A
Visualization observer readout
Local Sidereal Time
21:29:51
Azimuth
Unknown
Elevation
Unknown
Doppler factor
Unknown
Orbital elements
Apogee altitude
312.306 km
Perigee altitude
306.221 km
Semi-major axis
6,687.401 km
Eccentricity
0.00045
Inclination
53.0407°
RAAN
227.352°
Arg. of periapsis
18.1216°
True anomaly
337.7901°
Mean anomaly
337.8098°
Eccentric anomaly
337.79995°
Mean motion
3.96878 °/min
Orbital period
90.71 mins
BSTAR
0.00075273
Loading maneuver chart data...
Computing Atmospheric mass density...

Documentation

Showing up to 5 results
|